Miscellaneous Local Product
Issued by NWS Hastings, NE

Home | Current Version | Previous Version | Graphics & Text | Print | Product List | Glossary On
Versions: 1 2 3 4 5 6 7 8 9 10 11 12 13 14 15 16 17 18 19 20 21 22 23 24 25 26 27 28 29 30 31 32 33 34 35 36 37 38 39 40 41 42 43 44 45 46 47 48 49 50
000
AXUS43 KGID 290002
MISGRI

GID CWA HOURLY WEATHER ROUNDUP
NATIONAL WEATHER SERVICE HASTINGS NE
700 PM CDT TUE JUL 28 2015

NOTE: "FAIR" INDICATES FEW OR NO CLOUDS BELOW 12,000 FEET WITH NO
SIGNIFICANT WEATHER AND/OR OBSTRUCTIONS TO VISIBILITY.

...SOUTH CENTRAL NEBRASKA...

CITY           SKY/WX    TMP DP  RH WIND       PRES   REMARKS
GRAND ISLAND   SUNNY     80  58  46 N10       29.99S
HASTINGS       MOSUNNY   80  59  48 N12       29.99S
KEARNEY        SUNNY     82  54  36 NE12      30.00S
ORD            SUNNY     82  52  35 N6        30.00R
YORK           MOSUNNY   75  63  64 N12G20    29.97S
AURORA         CLOUDY    75  61  61 N8        29.98F
LEXINGTON      SUNNY     83  52  34 N8        30.03S
HOLDREGE       SUNNY     81  56  41 N9        30.01S
HEBRON         SUNNY     81  69  66 N15G23    29.92S

...NEBRASKA PANHANDLE...

CITY           SKY/WX    TMP DP  RH WIND       PRES   REMARKS
CHADRON        SUNNY     80  29  15 NW16G24   30.06F
ALLIANCE       SUNNY     80  31  16 NW10      30.09S
SCOTTSBLUFF    SUNNY     83  31  15 NW5       30.10S
SIDNEY         SUNNY     81  32  17 N6        30.14S

...WESTERN AND NORTH CENTRAL NEBRASKA...

CITY           SKY/WX    TMP DP  RH WIND       PRES   REMARKS
VALENTINE      SUNNY     81  35  19 W18G30    30.03S
AINSWORTH      SUNNY     81  43  26 NW8       30.04R
ONEILL         SUNNY     79  52  38 NW7       30.02R
BROKEN BOW     SUNNY     84  51  31 NW7       30.03R
IMPERIAL       SUNNY     83  42  23 N12       30.09R
NORTH PLATTE   SUNNY     81  46  29 NE10      30.05S
MCCOOK         SUNNY     86  48  26 NE13      30.03S

...EASTERN NEBRASKA...

CITY           SKY/WX    TMP DP  RH WIND       PRES   REMARKS
NORFOLK        MOSUNNY   81  57  43 N14       29.97R
SO SIOUX CITY  CLOUDY    78  61  55 N12       29.93S
TEKAMAH        PTSUNNY   78  68  71 N9        29.91S
COLUMBUS       CLOUDY    75  59  57 CALM      29.96S
ALBION         SUNNY     80  51  37 N9        30.00R
OMAHA EPPLEY   PTSUNNY   79  71  76 N15G22    29.88F
OFFUTT AFB     SUNNY     80  72  77 N9G20     29.87R
MILLARD        MOSUNNY   80  71  74 NW13G21   29.90S
LINCOLN        MOSUNNY   80  67  64 N17       29.92R
NEBRASKA CITY  MOSUNNY   83  74  74 N17G25    29.84F HX  90
BEATRICE       MOSUNNY   81  73  77 N17G23    29.88F
FALLS CITY     SUNNY     92  78  63 S9        29.81F HX 107

...NORTHERN KANSAS...

CITY           SKY/WX    TMP DP  RH WIND       PRES   REMARKS
GOODLAND       SUNNY     83  43  24 NE16      30.08S
HILL CITY      SUNNY     85  53  33 N18       29.99S
NORTON         CLEAR     79  48  34 N12       30.00S
PHILLIPSBURG   SUNNY     88  55  33 N12G18    29.97S
SMITH CENTER   SUNNY     82  57  42 N20G25    29.94S
HAYS           SUNNY     86  63  45 N15       29.94S
RUSSELL        SUNNY     87  70  56 N15       29.90S HX  92
CONCORDIA      SUNNY     83  73  72 N17G24    29.89R
SALINA         SUNNY    100  69  36 S16G23    29.82S HX 106
TOPEKA         SUNNY     94  72  48 S13       29.84S HX 102



USA.gov is the U.S. government's official web portal to all federal, state and local government web resources and services.